Dewpoint
49 50 49 50 49 49 50 49 49 49 49 49 47 47 47 48 47 48 48 48 48 48 48 49 49 49 49 49 49 49 48 49 48 48 48 48 48 49 48 49 50 49
50 50 49 49 49 48 48 49 49 48 48 48 48 46 48 47 47 47 47 46 46 47 47 48 48 47 48 48 49 48 47 47 47 47 47 47 47 47 47 48 48 48
49 49 49 49 48 49 49 49 49 48 47 47 47 47 47 47 46 46 46 46 45 45 46 46 46 46 46 47 47 47 47 46 46 47 47 47 46 47 46 46 47 48
49 48 48 48 48 47 48 47 47 47 47 45 46 46 45 46 45 45 44 44 44 44 44 45 45 45 45 45 46 45 46 45 45 46 46 46 46 46 46 46 46 45
48 47 47 47 46 46 47 46 45 45 46 46 47 46 45 45 44 42 43 42 43 42 43 43 44 45 44 45 45 44 44 43 45 45 44 44 46 46 46 46 45 45
48 45 45 45 45 47 46 46 45 46 45 46 46 45 44 43 42 41 41 41 41 40 40 41 41 43 43 43 44 44 44 44 44 44 42 43 44 44 45 45 44 43
46 47 47 46 47 46 46 46 46 46 45 45 44 44 43 42 42 41 39 39 38 39 38 40 40 42 43 43 43 42 42 44 43 41 41 42 43 43 43 44 42 41
46 46 46 46 47 46 46 45 45 45 45 44 44 43 42 40 40 41 39 39 38 38 39 39 39 39 41 42 42 41 42 43 42 41 42 42 42 40 41 42 43 41
46 45 45 46 46 46 45 44 44 44 42 43 42 42 42 41 40 40 40 39 38 39 38 38 38 38 41 41 41 41 40 42 42 42 42 41 41 41 40 41 40 41
46 45 45 45 45 45 45 45 43 42 41 42 41 42 41 42 40 38 39 40 40 39 37 37 37 38 39 40 40 40 39 40 40 41 41 40 40 39 39 39 39 39
45 45 45 45 45 44 45 44 43 43 43 40 41 41 40 40 39 39 38 38 41 37 37 37 37 38 38 38 40 41 40 41 40 40 41 40 40 40 40 39 39 38
44 45 44 44 44 44 44 44 43 43 42 42 40 40 40 40 40 39 37 36 36 37 37 37 36 37 37 37 38 40 41 41 41 41 40 39 39 39 38 39 39 37
44 43 43 44 44 44 43 42 42 43 41 40 40 40 40 40 40 39 40 39 39 38 37 37 36 37 38 38 38 39 40 40 41 40 39 40 39 38 38 38 38 37
43 43 42 42 42 41 42 42 41 41 42 41 41 40 40 38 39 39 40 39 39 38 38 38 36 36 37 37 38 39 40 40 40 40 39 39 40 39 39 38 37 36
41 41 40 40 39 40 40 41 41 41 41 40 40 41 41 39 39 39 39 39 37 39 37 37 37 38 38 38 39 39 40 39 39 37 38 38 38 38 38 36 35 37
37 38 37 38 38 38 39 40 40 40 40 39 39 39 39 40 39 40 39 38 38 38 37 38 37 38 39 39 39 39 40 39 39 39 38 38 37 37 37 36 35 36
34 35 35 35 37 38 39 37 38 40 39 39 40 40 41 40 40 39 39 38 37 38 37 37 36 37 38 36 37 38 39 41 38 38 37 37 36 35 34 35 35 35
32 33 33 35 36 35 36 36 38 38 38 39 40 41 41 42 41 39 39 39 39 37 37 37 36 38 36 36 37 36 38 40 38 37 37 35 34 33 32 33 35 35
30 31 33 34 35 36 37 37 37 37 39 39 40 41 41 41 40 39 39 39 38 37 36 35 35 37 36 36 36 36 36 39 36 37 35 34 35 35 34 34 35 35
30 31 32 34 36 36 37 36 37 38 40 40 40 41 41 40 40 40 39 39 38 37 36 34 34 37 36 36 36 36 36 37 37 37 36 34 34 34 35 34 35 35
29 31 32 33 34 36 37 37 38 39 39 39 39 39 39 38 39 39 39 39 38 37 36 35 35 36 36 36 35 36 35 37 37 37 35 34 34 34 34 35 34 35
30 31 33 32 33 34 35 37 39 39 39 39 39 38 38 38 38 38 38 37 38 38 37 35 34 36 35 36 35 35 36 36 36 36 35 33 33 33 31 33 34 34
30 31 31 32 33 34 35 37 38 39 38 37 38 38 37 37 37 37 37 36 36 38 38 36 35 36 35 36 35 35 37 36 35 33 33 33 32 32 30 32 33 32
30 30 31 32 32 33 35 36 36 37 38 37 36 36 36 37 36 35 36 36 36 36 37 37 36 36 36 36 35 36 36 36 32 32 33 31 31 31 30 31 32 40
30 31 31 32 33 34 36 36 36 37 37 37 36 36 36 34 34 34 35 36 37 37 36 37 37 36 36 35 36 35 36 37 31 30 31 31 30 30 30 30 31 34
33 33 33 33 33 35 36 36 36 37 38 37 35 32 32 33 33 34 35 35 36 37 37 36 36 36 36 35 36 36 36 37 33 30 31 31 29 28 29 31 31 31